User: anonymous   Login
Location: アルンシュタイン
(50.0000°N, 10.0000°E)
Time: 06:54:56
(UTC+01:00)
Language:

POLYITAN 1 - Orbit

View from above orbital plane
View from above orbital plane
View from above satellite
View from above satellite

Ground track
Ground track

The orbit data is extracted from the following two-line orbital elements,

1 40042U 14033AJ  22027.78907158  .00001120  00000-0  12285-3 0  9994
2 40042  97.9603 325.2982 0015123 147.0226 213.1938 14.89680105413211
Epoch (UTC): 27 January 2022 18:56:15
Eccentricity: 0.0015123
inclination: 97.9603°
perigee height: 588 km
apogee height: 609 km
right ascension of ascending node: 325.2982°
argument of perigee: 147.0226°
revolutions per day: 14.89680105
mean anomaly at epoch: 213.1938°
orbit number at epoch: 41321

The dashed part of the orbit path shows where the satellite is in the earth's shadow,  

DLR